Weather History for Mullan Pass, ID

Change the Weather History Date:

Tuesday, February 5, 2013

  Actual Average (K3TH) Record (K3TH)
Temperature  
Mean Temperature 29 °F -  
Max Temperature 34 °F 35 °F 69 °F (2001)
Min Temperature 24 °F 25 °F 19 °F (2002)
Degree Days  
Heating Degree Days 36    
Moisture  
Dew Point 25 °F    
Average Humidity 96    
Maximum Humidity 100    
Minimum Humidity 73    
Precipitation  
Precipitation 0.17 in - - ()
Sea Level Pressure  
Sea Level Pressure 29.81 in    
Wind  
Wind Speed 6 mph (WSW)    
Max Wind Speed 12 mph    
Max Gust Speed 25 mph    
Visibility 4 miles    
Events Fog , Rain , Snow    
Averages and records for this station are not official NWS values.
T = Trace of Precipitation, MM = Missing Value Source: NWS Daily Summary

Daily Weather History Graph

Daily Weather History Graph

Search for Another Location

Airport:

Trip Planner

Search our weather history database for the weather conditions in past years. The results will help you decide how hot, cold, wet, or windy it might be!

Date:

Astronomy

Feb. 05, 2013 Rise Set
Actual Time 7:02 AM PST 4:51 PM PST
Civil Twilight 6:30 AM PST 5:23 PM PST
Nautical Twilight 5:53 AM PST 6:00 PM PST
Astronomical Twilight 5:18 AM PST 6:35 PM PST
Moon 2:57 AM PST (2/5) 12:04 PM PST (2/5)
Length of Visible Light 10h 53m
Length of Day
9h 48m
Waning Crescent, 25% of the Moon is Illuminated
Feb 5
Waning Crescent
Feb 9
New
Feb 17
First Quarter
Feb 25
Full
Mar 4
Last Quarter

Hourly Weather History & Observations

Time (PST) Temp. Windchill Dew Point Humidity Pressure Visibility Wind Dir Wind Speed Gust Speed Precip Events Conditions
12:53 AM 26.1 °F 19.4 °F 25.0 °F 96% 29.97 in 10.0 mi Variable 5.8 mph - N/A   Mostly Cloudy
1:53 AM 26.1 °F 17.6 °F 25.0 °F 96% 29.97 in 10.0 mi SSW 8.1 mph - N/A   Overcast
2:53 AM 26.1 °F 21.9 °F 25.0 °F 96% 29.96 in 10.0 mi Variable 3.5 mph - N/A   Overcast
3:14 AM 26.6 °F 22.6 °F 24.8 °F 93% 29.85 in 10.0 mi Variable 3.5 mph - N/A   Overcast
3:53 AM 26.1 °F 16.2 °F 25.0 °F 96% 29.95 in 8.0 mi South 10.4 mph 16.1 mph N/A   Overcast
4:25 AM 26.6 °F 18.2 °F 24.8 °F 93% 29.85 in 3.0 mi SSW 8.1 mph 17.3 mph 0.00 in Snow Light Snow
4:42 AM 26.6 °F 20.0 °F 24.8 °F 93% 29.84 in 4.0 mi SSW 5.8 mph - 0.00 in Snow Light Snow
4:48 AM 26.6 °F 21.2 °F 24.8 °F 93% 29.84 in 2.5 mi Variable 4.6 mph - 0.00 in Snow Light Snow
4:53 AM 26.1 °F - 26.1 °F 100% 29.95 in 1.5 mi Calm Calm - 0.00 in Snow Light Snow
5:00 AM 26.6 °F 21.2 °F 26.6 °F 100% 29.84 in 0.8 mi Variable 4.6 mph - 0.00 in Snow Light Snow
5:53 AM 27.0 °F 18.7 °F 26.1 °F 96% 29.91 in 0.8 mi South 8.1 mph 17.3 mph 0.00 in Snow Light Snow
6:10 AM 26.6 °F 17.5 °F 26.6 °F 100% 29.80 in 0.5 mi South 9.2 mph - 0.00 in Fog , Snow Light Snow
6:23 AM 26.6 °F 18.2 °F 26.6 °F 100% 29.80 in 0.2 mi South 8.1 mph - 0.00 in Fog Light Freezing Fog
6:53 AM 27.0 °F 19.5 °F 27.0 °F 100% 29.89 in 0.2 mi South 6.9 mph - 0.00 in Fog Light Freezing Fog
7:24 AM 28.4 °F 23.3 °F 28.4 °F 100% 29.80 in 0.5 mi Variable 4.6 mph - N/A Fog Light Freezing Fog
7:33 AM 28.4 °F 22.2 °F 28.4 °F 100% 29.80 in 0.2 mi Variable 5.8 mph - N/A Fog Light Freezing Fog
7:53 AM 28.0 °F 20.8 °F 28.0 °F 100% 29.89 in 0.5 mi Variable 6.9 mph - N/A Fog Light Freezing Fog
8:08 AM 28.4 °F 21.2 °F 28.4 °F 100% 29.80 in 1.5 mi Variable 6.9 mph - N/A   Overcast
8:12 AM 28.4 °F 19.7 °F 28.4 °F 100% 29.80 in 4.0 mi South 9.2 mph - N/A   Overcast
8:49 AM 28.4 °F 21.2 °F 28.4 °F 100% 29.79 in 10.0 mi Variable 6.9 mph - N/A   Mostly Cloudy
8:53 AM 28.0 °F 20.8 °F 28.0 °F 100% 29.89 in 10.0 mi Variable 6.9 mph - N/A   Mostly Cloudy
9:53 AM 30.0 °F 25.2 °F 28.9 °F 96% 29.88 in 10.0 mi Variable 4.6 mph - N/A   Overcast
10:53 AM 28.9 °F 21.1 °F 26.1 °F 89% 29.88 in 10.0 mi SW 8.1 mph 16.1 mph N/A   Overcast
11:53 AM 30.9 °F 22.8 °F 25.0 °F 79% 29.85 in 10.0 mi SW 9.2 mph - 0.01 in   Overcast
12:53 PM 34.0 °F 28.0 °F 26.1 °F 73% 29.69 in 10.0 mi Variable 6.9 mph - 0.08 in   Overcast
1:35 PM 32.0 °F 28.7 °F 26.6 °F 80% 29.74 in 10.0 mi Variable 3.5 mph - 0.05 in   Overcast
1:53 PM 30.9 °F 25.2 °F 25.0 °F 79% 29.81 in 10.0 mi Variable 5.8 mph - 0.06 in   Overcast
2:53 PM 28.9 °F 21.1 °F 25.0 °F 85% 29.83 in 2.5 mi SW 8.1 mph - 0.02 in Snow Light Snow
3:01 PM 28.4 °F 21.2 °F 24.8 °F 86% 29.74 in 5.0 mi SW 6.9 mph 17.3 mph 0.00 in Snow Light Snow
3:16 PM 28.4 °F 19.7 °F 24.8 °F 86% 29.74 in 1.8 mi SW 9.2 mph - 0.00 in Snow Light Snow
3:22 PM 28.4 °F 20.4 °F 26.6 °F 93% 29.75 in 0.8 mi WSW 8.1 mph - 0.00 in Snow Light Snow
3:27 PM 28.4 °F 22.2 °F 26.6 °F 93% 29.75 in 0.2 mi Variable 5.8 mph - 0.00 in Fog , Snow Snow
3:32 PM 28.4 °F 22.2 °F 26.6 °F 93% 29.74 in 0.2 mi Variable 5.8 mph - 0.00 in Fog , Snow Snow
3:53 PM 27.0 °F 20.5 °F 27.0 °F 100% 29.83 in 0.5 mi SW 5.8 mph - 0.00 in Fog , Snow Snow
4:53 PM 27.0 °F 20.5 °F 27.0 °F 100% 29.83 in 0.2 mi Variable 5.8 mph - 0.00 in Fog , Snow Light Snow
5:00 PM 26.6 °F 19.1 °F 26.6 °F 100% 29.75 in 0.5 mi SW 6.9 mph - 0.00 in Fog , Snow Light Snow
5:53 PM 26.1 °F 16.8 °F 26.1 °F 100% 29.85 in 0.8 mi WSW 9.2 mph 25.3 mph 0.00 in Snow Light Snow
6:10 PM 26.6 °F 20.0 °F 24.8 °F 93% 29.76 in 3.0 mi Variable 5.8 mph 20.7 mph 0.00 in Snow Light Snow
6:17 PM 26.6 °F 21.2 °F 24.8 °F 93% 29.76 in 1.8 mi Variable 4.6 mph - 0.00 in Snow Light Snow
6:24 PM 26.6 °F 18.2 °F 24.8 °F 93% 29.76 in 0.8 mi West 8.1 mph 18.4 mph 0.00 in Snow Light Snow
6:35 PM 24.8 °F 16.1 °F 24.8 °F 100% 29.77 in 1.0 mi West 8.1 mph 20.7 mph 0.00 in Snow Light Snow
6:44 PM 24.8 °F 17.9 °F 24.8 °F 100% 29.76 in 2.0 mi Variable 5.8 mph - 0.00 in Snow Light Snow
6:53 PM 25.0 °F 18.1 °F 24.1 °F 96% 29.87 in 2.0 mi Variable 5.8 mph - 0.00 in Snow Light Snow
6:55 PM 24.8 °F 16.1 °F 24.8 °F 100% 29.77 in 1.2 mi WSW 8.1 mph - 0.00 in Snow Light Snow
7:02 PM 24.8 °F 16.1 °F 24.8 °F 100% 29.77 in 1.2 mi West 8.1 mph - 0.00 in Snow Light Snow
7:05 PM 24.8 °F 16.9 °F 24.8 °F 100% 29.77 in 2.0 mi Variable 6.9 mph - 0.00 in Snow Light Snow
7:09 PM 24.8 °F 14.0 °F 23.0 °F 93% 29.77 in 4.0 mi West 11.5 mph 21.9 mph 0.00 in Snow Light Snow
7:18 PM 24.8 °F 14.6 °F 23.0 °F 93% 29.77 in 7.0 mi NW 10.4 mph 21.9 mph 0.00 in Snow Light Snow
7:28 PM 24.8 °F 16.1 °F 24.8 °F 100% 29.76 in 2.5 mi WNW 8.1 mph 20.7 mph 0.00 in Snow Light Snow
7:31 PM 24.8 °F 16.9 °F 24.8 °F 100% 29.76 in 1.5 mi Variable 6.9 mph 20.7 mph 0.00 in Snow Light Snow
7:34 PM 24.8 °F 17.9 °F 24.8 °F 100% 29.76 in 0.8 mi Variable 5.8 mph 20.7 mph 0.00 in Snow Light Snow
7:43 PM 24.8 °F 16.1 °F 24.8 °F 100% 29.76 in 0.5 mi West 8.1 mph - 0.00 in Fog , Snow Light Snow
7:53 PM 25.0 °F 16.3 °F 24.1 °F 96% 29.86 in 0.8 mi West 8.1 mph 17.3 mph 0.00 in Snow Light Snow
7:57 PM 24.8 °F 16.9 °F 24.8 °F 100% 29.76 in 1.8 mi Variable 6.9 mph 21.9 mph 0.00 in Snow Light Snow
7:59 PM 24.8 °F 19.1 °F 24.8 °F 100% 29.77 in 3.0 mi Variable 4.6 mph 21.9 mph 0.00 in Snow Light Snow
8:08 PM 24.8 °F 19.1 °F 24.8 °F 100% 29.76 in 1.8 mi Variable 4.6 mph - 0.00 in Snow Light Snow
8:16 PM 24.8 °F 16.9 °F 24.8 °F 100% 29.77 in 1.0 mi Variable 6.9 mph - 0.00 in Snow Light Snow
8:22 PM 24.8 °F 16.9 °F 24.8 °F 100% 29.77 in 2.0 mi Variable 6.9 mph - 0.00 in Snow Light Snow
8:25 PM 24.8 °F 19.1 °F 24.8 °F 100% 29.77 in 3.0 mi Variable 4.6 mph - 0.00 in Snow Light Snow
8:31 PM 24.8 °F 20.5 °F 24.8 °F 100% 29.77 in 1.8 mi Variable 3.5 mph - 0.00 in Snow Light Snow
8:38 PM 24.8 °F 20.5 °F 24.8 °F 100% 29.77 in 1.0 mi WNW 3.5 mph - 0.00 in Snow Light Snow
8:44 PM 24.8 °F 16.9 °F 24.8 °F 100% 29.77 in 2.0 mi Variable 6.9 mph - 0.00 in Snow Light Snow
8:51 PM 24.8 °F 19.1 °F 24.8 °F 100% 29.78 in 1.8 mi Variable 4.6 mph - 0.00 in Snow Light Snow
8:53 PM 25.0 °F 18.1 °F 24.1 °F 96% 29.87 in 1.2 mi Variable 5.8 mph - 0.00 in Snow Light Snow
9:06 PM 24.8 °F - 24.8 °F 100% 29.78 in 2.0 mi Calm Calm - 0.00 in Snow Light Snow
9:09 PM 24.8 °F 19.1 °F 24.8 °F 100% 29.78 in 1.2 mi Variable 4.6 mph - 0.00 in Snow Light Snow
9:18 PM 24.8 °F 16.9 °F 24.8 °F 100% 29.79 in 2.0 mi Variable 6.9 mph - 0.00 in Snow Light Snow
9:21 PM 24.8 °F 20.5 °F 24.8 °F 100% 29.79 in 6.0 mi Variable 3.5 mph - 0.00 in Snow Light Snow
9:32 PM 24.8 °F 16.9 °F 24.8 °F 100% 29.79 in 8.0 mi Variable 6.9 mph - 0.00 in Snow Light Snow
9:53 PM 25.0 °F 19.3 °F 24.1 °F 96% 29.88 in 6.0 mi Variable 4.6 mph - 0.00 in Snow Light Snow
10:17 PM 24.8 °F 16.1 °F 24.8 °F 100% 29.80 in 10.0 mi WSW 8.1 mph 17.3 mph 0.00 in Rain Light Freezing Rain
10:45 PM 24.8 °F 17.9 °F 24.8 °F 100% 29.81 in 10.0 mi WSW 5.8 mph - 0.00 in   Overcast
11:20 PM 24.8 °F 17.9 °F 23.0 °F 93% 29.81 in 10.0 mi Variable 5.8 mph - 0.00 in Rain Light Freezing Rain
11:29 PM 24.8 °F 14.6 °F 23.0 °F 93% 29.81 in 5.0 mi West 10.4 mph 21.9 mph 0.00 in Snow Light Snow
11:48 PM 24.8 °F 16.1 °F 23.0 °F 93% 29.80 in 1.8 mi West 8.1 mph 21.9 mph 0.00 in Snow Light Snow
11:53 PM 25.0 °F 19.3 °F 24.1 °F 96% 29.89 in 1.2 mi Variable 4.6 mph 21.9 mph 0.00 in Snow Light Snow